Vorticity
nan nan nan nan nan nan nan nan nan nan nan nan nan nan nan nan nan nan nan nan nan nan nan nan nan nan nan nan nan nan nan nan nan nan nan nan nan nan nan nan nan nan nan
nan 9 9 9 10 10 10 11 9 9 11 7 8 9 10 9 9 8 7 8 9 8 8 8 8 10 9 8 7 6 6 9 11 9 8 10 9 10 11 11 8 8 nan
nan 9 9 10 9 9 9 10 11 10 7 8 9 9 7 7 8 8 8 8 8 9 9 8 8 7 7 6 7 9 10 11 11 8 8 9 11 11 13 12 9 9 nan
nan 8 9 11 12 11 9 7 9 9 6 7 7 6 7 9 12 9 9 8 9 8 8 7 9 8 9 9 9 10 10 8 10 11 9 8 8 11 12 9 8 8 nan
nan 11 11 13 13 13 10 5 7 9 5 7 5 6 8 11 11 13 9 10 9 7 8 10 11 9 10 11 8 7 9 10 8 11 7 8 10 6 5 10 10 10 nan
nan 12 11 14 13 12 9 7 7 7 5 5 6 7 6 8 11 11 12 9 8 8 8 9 11 16 14 9 10 6 7 9 7 8 7 7 9 10 9 7 9 10 nan
nan 13 12 11 10 8 10 8 7 5 5 7 9 9 7 6 13 15 12 7 9 11 10 9 11 10 12 12 13 11 11 10 5 4 7 9 10 9 10 11 8 9 nan
nan 12 11 10 10 9 10 9 7 9 8 7 9 9 8 8 13 15 10 7 9 9 10 8 10 12 13 16 10 7 9 12 16 12 9 9 8 9 10 11 12 13 nan
nan 11 11 9 9 10 10 11 10 8 8 7 6 10 11 12 14 6 2 8 10 10 9 9 10 10 16 15 9 10 9 13 18 11 8 9 9 9 6 7 11 11 nan
nan 12 10 9 10 10 9 11 8 11 11 8 10 12 12 16 12 9 3 7 9 8 9 13 11 13 13 7 9 10 12 11 5 6 13 16 11 14 14 5 8 9 nan
nan 12 11 10 9 10 12 12 12 10 9 10 12 12 10 11 11 11 7 7 11 9 10 12 14 14 8 9 7 12 11 12 12 10 9 10 13 13 11 10 9 9 nan
nan 10 12 11 9 12 12 9 12 10 9 10 12 12 10 11 16 18 10 7 9 9 11 16 17 9 7 8 9 11 8 7 10 9 9 10 10 11 8 7 12 12 nan
nan 12 12 10 11 11 9 8 9 10 9 11 11 13 13 14 8 10 15 17 13 8 10 15 15 9 10 14 12 6 7 8 8 9 9 11 9 9 12 11 10 13 nan
nan 9 9 12 11 8 10 9 8 15 14 10 10 10 13 11 10 11 11 11 11 15 11 2 -1 7 10 18 19 7 5 7 8 12 11 10 10 9 10 12 11 12 nan
nan 11 10 10 10 3 3 14 17 10 16 19 17 11 15 15 16 15 17 16 7 11 11 9 7 8 8 6 6 9 10 10 9 10 10 10 10 10 11 10 11 11 nan
nan 10 11 10 11 9 8 0 5 13 16 17 15 18 16 17 20 11 13 15 15 11 7 9 10 10 10 10 10 10 12 11 9 9 11 10 10 10 10 12 12 10 nan
nan 11 8 10 12 11 10 10 1 0 5 9 13 16 20 17 8 9 9 8 8 5 7 10 11 11 11 10 10 10 10 8 13 11 9 11 11 11 10 11 11 12 nan
nan 10 13 13 10 10 11 10 10 9 4 2 6 12 12 12 11 11 9 2 5 6 9 11 12 11 11 10 10 10 11 10 11 11 11 11 10 10 10 10 10 11 nan
nan 12 11 11 10 10 13 12 12 9 11 9 5 7 8 8 8 7 4 6 9 12 12 10 11 12 11 10 10 10 10 10 11 12 12 10 10 10 10 10 11 12 nan
nan 12 17 12 13 14 13 12 12 11 12 10 9 11 11 5 5 7 9 11 10 11 11 10 11 11 11 10 10 11 12 11 10 10 10 10 10 10 10 10 11 11 nan
nan 11 12 13 10 10 11 11 11 11 10 10 10 14 14 8 8 10 12 10 11 11 10 11 11 11 11 10 10 11 12 10 11 11 10 10 10 10 10 10 10 12 nan
nan 9 7 9 10 12 8 9 11 10 11 11 10 11 9 9 10 11 11 11 11 11 11 11 11 10 9 11 13 12 11 11 10 10 10 10 10 12 10 11 11 12 nan
nan 10 7 8 8 10 11 10 10 13 9 12 14 8 6 10 11 12 12 11 11 11 11 11 11 10 12 11 12 11 10 11 10 10 10 10 10 11 11 10 11 11 nan
nan 10 10 10 12 9 12 10 9 10 14 12 10 10 11 12 11 12 11 12 11 11 11 10 10 12 11 11 11 11 14 10 10 10 9 10 10 8 12 10 11 10 nan
nan 11 11 11 12 12 10 12 13 9 11 11 12 10 11 12 14 14 11 9 10 11 11 11 12 12 10 10 9 14 12 10 7 14 13 8 11 11 12 10 11 11 nan
nan nan nan nan nan nan nan nan nan nan nan nan nan nan nan nan nan nan nan nan nan nan nan nan nan nan nan nan nan nan nan nan nan nan nan nan nan nan nan nan nan nan nan
CAPE
2836 3425 3246 2941 3050 3370 3304 3428 3017 2210 1396 947 789 263 277 232 175 235 186 9 22 4 3 97 264 431 149 84 80 60 85 84 71 7 16 31 57 111 106 155 132 86 54
3304 3540 2997 2913 2889 3140 3390 3058 2317 1729 973 1038 534 397 305 173 196 298 185 10 24 0 47 235 396 271 356 447 185 254 204 181 137 217 160 67 285 52 87 214 192 65 76
2767 2902 2891 2837 2930 3067 2819 1697 1671 863 649 360 432 663 738 695 276 358 399 294 113 64 187 312 363 375 370 265 256 142 149 142 173 130 139 115 77 51 171 401 366 342 90
2483 2869 3034 2839 2752 2734 2004 427 263 240 325 199 430 274 272 535 553 512 410 401 188 136 321 439 586 599 559 438 263 450 380 242 341 120 173 93 122 209 193 99 97 112 80
2670 2713 3018 3048 2663 1991 1267 321 165 152 438 7 33 0 13 629 317 735 355 259 290 394 499 642 769 865 409 345 226 402 331 225 162 127 150 99 78 103 267 134 115 176 328
2819 2892 3026 3421 2400 1304 960 778 897 745 392 32 2 10 32 155 24 19 158 321 432 656 831 921 998 853 499 189 65 36 71 148 130 89 83 121 346 435 330 203 213 173 202
2893 3024 3223 3019 1968 1223 889 856 794 568 327 197 134 133 62 329 58 29 40 242 412 797 1065 950 722 439 328 575 159 20 12 0 0 131 299 270 467 405 331 481 311 258 144
2980 2999 3004 2649 1727 1612 1240 1160 911 461 227 364 304 191 167 253 251 0 2 449 905 1094 824 526 548 401 403 624 504 271 220 221 286 217 188 127 155 113 50 35 51 54 84
2764 2824 2508 2075 1479 1216 1242 1149 1114 838 562 644 657 555 552 646 0 0 0 474 859 891 593 320 245 416 89 0 93 154 268 238 39 0 0 0 0 0 0 8 5 38 27
2728 2656 2085 1747 1680 1367 1426 1312 1146 1160 826 471 598 664 330 1108 0 0 0 435 745 518 420 222 5 29 0 0 24 132 153 149 93 2 16 13 0 8 1 20 13 33 44
2695 2494 1929 1905 2116 2034 1818 1347 1103 959 855 931 781 1051 796 369 638 0 0 549 224 217 349 845 330 0 0 0 0 14 47 0 0 0 0 0 0 9 25 42 21 4 1
2776 2120 1980 1880 1787 1831 1631 1180 948 1081 1069 887 1445 1245 1022 1077 63 0 0 1 33 427 985 405 31 0 0 0 0 0 0 0 0 2 1 0 1 5 5 1 0 0 0
2231 1949 1986 1810 1535 1528 1469 949 815 912 871 1157 1285 1039 848 1051 289 1 0 1 1 392 379 23 0 0 0 0 0 0 0 0 9 1 0 0 0 0 0 10 6 17 31
2174 2059 1673 1902 1623 1440 1289 1140 1346 1327 1077 1644 1347 1028 430 876 570 71 2 1 0 6 0 0 0 0 0 0 0 0 1 4 1 0 0 0 0 0 0 0 0 0 12
1987 1741 1675 1411 1283 1677 851 257 1249 166 177 602 474 253 660 1125 635 259 87 174 166 9 0 0 1 9 11 15 15 8 5 2 0 0 0 0 0 0 0 0 0 0 18
1414 1410 1395 1409 1682 1513 756 119 0 0 1 1 1 56 133 0 0 0 0 0 0 0 0 0 3 4 3 7 8 3 0 0 0 0 0 0 0 0 0 0 0 3 13
1699 1650 1455 984 1008 1027 975 582 195 0 0 0 0 0 0 0 0 0 0 0 0 0 0 0 0 0 0 0 0 0 0 0 0 0 0 0 0 0 0 0 0 0 6
1374 692 972 882 838 662 622 648 621 528 226 3 0 0 0 0 0 0 0 0 0 0 0 0 0 0 0 0 0 0 0 0 0 0 0 0 0 0 0 0 0 0 6
484 511 526 353 257 140 281 322 451 468 327 197 0 0 0 0 0 0 0 0 0 1 0 0 0 0 0 0 0 0 0 0 0 0 0 0 0 0 0 0 0 0 0
210 14 66 287 446 481 589 511 500 451 472 415 121 35 0 0 0 0 0 0 0 0 0 0 0 0 0 0 0 0 0 0 0 0 0 0 0 0 0 0 0 0 5
369 421 175 451 418 315 216 192 189 262 303 253 247 103 0 18 28 14 11 1 0 0 0 0 0 0 0 0 0 0 0 0 0 0 0 0 0 0 0 0 0 0 0
381 203 109 24 73 184 215 299 336 319 268 258 213 0 0 4 14 33 23 6 1 0 0 0 0 0 0 0 0 0 0 0 0 0 0 0 0 0 0 0 0 0 0
103 84 162 333 306 58 308 352 401 383 345 252 248 167 1 20 31 22 15 5 2 0 0 0 0 0 0 0 0 0 0 0 0 0 0 0 0 0 0 0 0 0 0
224 230 197 153 108 100 128 232 308 69 215 136 124 85 44 18 35 14 1 0 4 1 0 0 0 0 0 0 0 0 0 0 0 0 0 0 0 0 0 0 0 0 0
120 110 100 90 73 73 130 104 98 72 22 57 55 26 24 42 42 6 1 21 15 9 0 0 0 0 0 0 0 0 0 0 0 0 0 0 0 0 0 0 0 0 0
1 0 0 0 0 2 3 7 10 11 10 11 16 22 24 40 45 47 33 36 32 21 8 0 0 0 0 0 0 0 0 0 0 0 0 0 0 0 0 0 0 0 0